Regional Weather Roundup
Issued by NWS

Home | Current Version | Previous Version | Graphics & Text | Print | Product List | Glossary On
Versions: 1 2 3 4 5 6 7 8 9 10 11 12 13 14 15 16 17 18 19 20 21 22 23 24 25 26 27 28 29 30 31 32 33 34 35 36 37 38 39 40 41 42 43 44 45 46 47 48 49 50
000
ASUS43 KLSX 220757
RWRMO

WEATHER SUMMARY FOR MISSOURI
NATIONAL WEATHER SERVICE SPRINGFIELD MO
300 AM CDT TUE MAY 22 2018

NOTE: "FAIR" INDICATES FEW OR NO CLOUDS BELOW 12,000 FEET WITH NO
       SIGNIFICANT WEATHER AND/OR OBSTRUCTIONS TO VISIBILITY.
       CURRENT SKY AND/OR WEATHER CONDITIONS ARE NOT AVAILABLE FOR
       CHILLICOTHE AND FARMINGTON.

MOZ001>031-035>038-043-044-053-054-220900-
...NORTHERN AND WESTERN MISSOURI...

CITY           SKY/WX    TMP DP  RH WIND       PRES   REMARKS
KANSAS CTY INT CLOUDY    59  56  89 SE6       30.01S
LEE`S SUMMIT   CLOUDY    62  60  93 CALM      30.02S
ST JOSEPH      CLEAR     57  57 100 CALM      30.00F
CHILLICOTHE      N/A     56  55  97 CALM      30.02S
KIRKSVILLE     CLEAR     55  55 100 NW3       30.01F FOG

$$
MOZ066>068-077>081-088>096-101>105-220900-
...SOUTHWEST MISSOURI...

CITY           SKY/WX    TMP DP  RH WIND       PRES   REMARKS
SPRINGFIELD    CLEAR     66  61  84 CALM      30.01F
JOPLIN         CLEAR     64  62  93 E3        30.01F

$$
MOZ032>034-039>042-045>050-055>058-069>072-220900-
...CENTRAL MISSOURI...

CITY           SKY/WX    TMP DP  RH WIND       PRES   REMARKS
COLUMBIA       NOT AVBL
JEFFERSON CITY PTCLDY    61  60  97 NW3       30.00F
ROLLA          PTCLDY    63  61  93 CALM      30.03S
SEDALIA        CLEAR     61  61 100 S3        30.02F
WARRENSBURG    CLOUDY    57  55  94 CALM      30.01F

$$
MOZ051-052-059>065-220900-
...EAST CENTRAL MISSOURI...

CITY           SKY/WX    TMP DP  RH WIND       PRES   REMARKS
ST LOUIS INTL  PTCLDY    69  66  90 W3        30.00R

$$
MOZ072>076-082>087-097>100-106>115-220900-
...SOUTH CENTRAL AND SOUTHEAST MISSOURI...

CITY           SKY/WX    TMP DP  RH WIND       PRES   REMARKS
CAPE GIRARDEAU FAIR      67  65  93 CALM      29.99S
POPLAR BLUFF   FOG       68  68 100 CALM      29.98F VSB 1/4
WEST PLAINS    CLEAR     65  63  93 CALM      30.03F FOG

$$




USA.gov is the U.S. government's official web portal to all federal, state and local government web resources and services.